Regional Weather Roundup
Issued by NWS

Home | Current Version | Previous Version | Graphics & Text | Print | Product List | Glossary On
Versions: 1 2 3 4 5 6 7 8 9 10 11 12 13 14 15 16 17 18 19 20 21 22 23 24 25 26 27
000
ASUS45 KBOU 290307
RWRCO

WEATHER ROUNDUP FOR COLORADO
NATIONAL WEATHER SERVICE DENVER/BOULDER CO
900 PM MDT TUE MAR 28 2017

NOTE: "FAIR" INDICATES FEW OR NO CLOUDS BELOW 12000 FEET WITH NO
SIGNIFICANT WEATHER AND/OR OBSTRUCTIONS TO VISIBILITY.

COZ001>005-013-030-031-290400-
...NORTHWEST COLORADO...

CITY           SKY/WX    TMP DP  RH WIND       PRES   REMARKS
CRAIG          FAIR      40  30  67 N14       30.07R
HAYDEN         FAIR      39  27  60 NW10      30.06R
MEEKER         MOCLDY    40  32  73 NE13      30.07R
MOUNT WERNER   NOT AVBL
STEAMBOAT SPGS MOCLDY    37  35  92 E3        30.05R
WALDEN         NOT AVBL
$$

COZ006>008-011-290400-
...WEST CENTRAL VALLEYS...

CITY           SKY/WX    TMP DP  RH WIND       PRES   REMARKS
GRAND JUNCTION CLOUDY    48  38  68 N9        30.00R
MONTROSE       CLOUDY    45  36  70 NW21G31   29.96R
EAGLE          CLOUDY    43  36  75 CALM      30.02R
RIFLE          CLOUDY    46  34  62 NW14      30.01R
DELTA          CLOUDY    50  36  57 W10G17    29.92R
NUCLA          CLOUDY    45  32  61 NW14      30.00R
$$

COZ017>023-064>068-290400-
...SOUTHWEST COLORADO...

CITY           SKY/WX    TMP DP  RH WIND       PRES   REMARKS
DURANGO        FAIR      38  34  85 E6        29.84R
CORTEZ         FAIR      44  34  67 NW13      29.90R
PAGOSA SPRINGS CLOUDY    38  37  93 CALM      29.87S
TELLURIDE      LGT SNOW  34  30  87 NW12G25   29.97R WCI  25
WOLF CREEK PAS CLOUDY    23  23 100 N13G18    29.97S WCI  11
$$

COZ009-010-012-014-032>034-037-058>063-290400-
...CENTRAL COLORADO...

CITY           SKY/WX    TMP DP  RH WIND       PRES   REMARKS
ASPEN          CLOUDY    37  33  85 NW8G20    29.98R
BUENA VISTA    LGT RAIN  36  33  88 NW6       29.97R
COPPER MTN     CLOUDY    28  21  74 MISG      30.05R
BERTHOUD PASS  SNOW      19   9  63 NE7       30.08R VSB 1/4 WCI  10
COTTONWOOD PAS LGT SNOW  32  32 100 CALM      30.00R
GUNNISON       LGT RAIN  35  34  96 CALM      29.95R
KREMMLING      CLOUDY    41  32  70 N8        30.04R
LEADVILLE      LGT SNOW  29  26  89 N13       29.99R FOG     WCI  19
MONARCH PASS   CLOUDY    25  23  93 NE41      30.02R WCI   5
SALIDA         CLOUDY    38  36  90 W3        30.03R
SUNLIGHT       CLOUDY   N/A N/A N/A NE6       30.11R HAZE
WILKERSON PASS FOG       27  23  86 NE12G21   30.03S VSB 3/4 WCI  16
$$

COZ069>075-290400-
...SAN LUIS VALLEY/SANGRE DE CRISTO MOUNTAINS...

CITY           SKY/WX    TMP DP  RH WIND       PRES   REMARKS
ALAMOSA        LGT SNOW  34  33  96 N8        29.87S FOG     WCI  27
LA VETA PASS   NOT AVBL
SAGUACHE       CLOUDY    41  30  65 NE7       29.90R
$$

COZ035-036-038>040-290400-
...NORTHERN COLORADO FRONT RANGE...

CITY           SKY/WX    TMP DP  RH WIND       PRES   REMARKS
DENVER INTL AP LGT RAIN  41  39  93 NW18      29.97R VSB 1/4
DMNS CITY PARK   N/A     41  36  84 N12G28    30.01R
AURORA         LGT RAIN  38  38 100 NW24      29.99R
FRONT RANGE AP NOT AVBL
ERIE MUNI ARPT DRIZZLE   41  37  87 N22G30    30.02R
BOULDER MUN AP DRIZZLE   41  37  87 N17       30.03R
CENTENNIAL     CLOUDY    38 N/A N/A N17G28    29.99R
BROOMFIELD     DRIZZLE   41  37  87 N14G25    30.01R
FORT COLLINS   LGT RAIN  41  39  93 N21       30.04R
LONGMONT       DRIZZLE   43  38  82 N18       30.06R
$$

COZ041-046-047-076>085-087-088-290400-
...PIKES PEAK/PALMER DIVIDE AND SOUTHERN FOOTHILLS...

CITY           SKY/WX    TMP DP  RH WIND       PRES   REMARKS
COLO. SPRINGS  LGT RAIN  38  35  89 NE9       29.98R
A. F. ACADEMY  NOT AVBL
SCHRIEVER AFB  LGT RAIN  37  36  93 NE5       29.99R
ELLICOTT       MIX PCPN N/A N/A N/A N7        29.97R
FALCON         DRIZZLE   35  35  99 N10       29.99R WCI  27
FORT CARSON    LGT RAIN  40  38  92 NE14      29.97R
LIMON          LGT RAIN  39  39 100 E7        29.97R
MONUMENT HILL  MIX PCPN  32  32 100 N15G22    29.99S VSB 1/2 WCI  22
TRINIDAD       LGT RAIN  41  39  93 NE13      29.83F
$$

COZ042>045-048>051-090-091-290400-
...NORTHEAST COLORADO...

CITY           SKY/WX    TMP DP  RH WIND       PRES   REMARKS
GREELEY ARPT   LGT RAIN  41  38  89 N18       30.04R
AKRON          LGT RAIN  37  36  96 E15       30.00R
BURLINGTON     LGT RAIN  40  40 100 NE13      29.97R FOG
WRAY           NOT AVBL
STERLING       RAIN      41  39  93 CALM      30.04R
HOLYOKE        DRIZZLE   41  39  93 E5        30.05R
FORT MORGAN    LGT RAIN  40  38  95 NE14      30.02R
$$

COZ086-089-092>099-290400-
...SOUTHEAST COLORADO...

CITY           SKY/WX    TMP DP  RH WIND       PRES   REMARKS
PUEBLO         LGT RAIN  44  41  89 E10       29.96R
LA JUNTA       CLOUDY    43  41  93 E14       29.92R FOG
LAMAR          LGT RAIN  43  41  93 NE9       29.93R FOG
SPRINGFIELD      N/A     41  41 100 NE16      29.82F
$$




USA.gov is the U.S. government's official web portal to all federal, state and local government web resources and services.